Location: Kimberly
(42.5380°N, 114.3640°W)
Time: 03:09:26
(UTC-06:00)

OTV 5 (USA 277) - Visible Passes

Search period start: 22 July 2018 00:00
Search period end: 01 August 2018 00:00
Orbit: 312 x 321 km, 54.5° (Epoch: 05 July)

Date Brightness Start Highest point End Pass type
(mag) Time Alt. Az. Time Alt. Az. Time Alt. Az.
28 Jul ? 05:23:26 10° S 05:25:18 17° SE 05:27:10 10° E visible
29 Jul ? 05:37:09 11° SSW 05:39:35 47° SE 05:42:12 10° ENE visible
30 Jul ? 04:20:20 10° ESE 04:20:20 10° ESE 04:20:35 10° ESE visible
30 Jul ? 05:51:21 10° WSW 05:54:01 55° NW 05:56:40 10° NE visible
31 Jul ? 04:34:20 27° SE 04:34:20 27° SE 04:36:38 10° ENE visible
